Find WHDW 08-06

NORAD ID: 65169 Int'l Des: 2025-174 Owner: ZXW Country: CN Constellation: xingwang operational
LEOCIRCULARPOLARONEWEB_TYPE

現在のビュー

3D地球を読み込み中...

About WHDW 08-06

WHDW 08-06 (NORAD 65169) is a xingwang constellation satellite launched Aug 13, 2025 by ZXW of CN. It operates in LEO, CIRCULAR, POLAR, ONEWEB_TYPE orbit with a mass of 800.00 kg.

WHDW 08-06について

説明を読み込み中...

次回通過

Passes for default location (London). Set your location on the main map for personalized predictions.

高度履歴

Loading altitude history...

軌道要素

1 65169U 25174F 26195.19930922 .00000023 00000-0 19772-4 0 9999
2 65169 86.4942 242.9045 0001621 104.0798 256.0516 13.24403405 44365
Epoch: Jul 14, 2026 • Age: 12 hours

現在のステータス

高度 1170.1 km
遠地点 / 近地点 N/A
速度 7.27 km/s
衛星直下点 3.82°N, 118.28°W
打ち上げ日 Aug 13, 2025
運用期間 0.9 years
タイプ other

技術仕様

分類 Payload
質量 800.00 kg
乾燥質量 800.00 kg
総質量 800.00 kg
長さ 3.00 m
直径 1.00 m
スパン 10.00 m
形状 Box + 2 Pan
製造者 CAST
バスタイプ Xingwang CL
フェーズステータス In Orbit
所有者/国 ZXW/CN

Most Searched